Batavia, NY

11:25 AM EDT on March 29, 2017 (GMT -0400)
Park Rd | | Change Station

Elev 932 ft 43.01 °N, 78.20 °W | Updated 8 seconds ago

Mostly Cloudy
Mostly Cloudy
41.7 °F
Feels Like 42 °F
N
2.3
Wind Variable Wind from NNW
Gusts 4.0 mph

Today
High -- | Low -- °F
--% Chance of Precip.
Yesterday
High -- | Low -- °F
Precip. -- in
Pressure 30.28 in
Visibility 10.0 miles
Clouds Mostly Cloudy 6000 ft
Windchill 42 °F
Dew Point 31 °F
Humidity 62%
Rainfall 0.00 in
Snow Depth Not available.
6:59 AM 7:35 PM
Waxing Crescent, 3% visible
METAR KROC 291454Z 05007KT 10SM BKN060 08/M02 A3026 RMK AO2 SLP253 T00781017 51013
Pressure 30.28 in
Visibility 10.0 miles
Clouds Mostly Cloudy 6000 ft
Windchill 42 °F
Dew Point 31 °F
Humidity 62%
Rainfall 0.00 in
Snow Depth Not available.
6:59 AM 7:35 PM
Waxing Crescent, 3% visible
METAR KROC 291454Z 05007KT 10SM BKN060 08/M02 A3026 RMK AO2 SLP253 T00781017 51013

Get Severe Weather Alerts

Thanks for signing up!

Be on the lookout for a verification email in your inbox.

You'll start receiving the daily forecast at 8 AM.

×

10-Day Weather Forecast

Almanac

Astronomy

Mar. 29, 2017 Rise Set
Actual Time
Civil Twilight
Nautical Twilight
Astronomical Twilight
Moon
Length of Visible Light
Length of Day
Tomorrow will be .
, % of the Moon is Illuminated

Today's Extremes

State Highs State Lows

Community

WunderPhotos

Upload Photos

1,962,540 photos uploaded!

WunderBlog® & News

Nearby

Air Quality

  Air Quality AQ Index Pollutant
Not available.

Snow Depth

Station Depth Elevation

Earthquake Activity

City Distance Mag. Time & Date
Minimum magnitude displayed is 2.5.

Earthquake Activity

City Distance Mag. Time & Date
Minimum magnitude displayed is 2.5.

Coastal Water Temperatures

Place Temperature

Stations

Nearby Weather Stations

Station Location Temp. Windchill Dew Point Humidity Wind Precip. Elev Updated Type
                   

Watches & Warnings

There are currently no watches in effect.